Regional Weather Roundup
Issued by NWS

Home | Current Version | Previous Version | Graphics & Text | Print | Product List | Glossary On
Versions: 1 2 3 4 5 6 7 8 9 10 11 12 13 14 15 16 17 18 19 20 21 22 23 24 25 26 27 28 29 30 31 32 33 34 35 36 37 38 39 40 41 42 43 44 45 46 47 48 49 50
000
ASUS43 KMPX 100001
RWRMN
WEATHER ROUNDUP FOR MINNESOTA
NATIONAL WEATHER SERVICE TWIN CITIES/CHANHASSEN MN
700 PM CDT WED JUL 09 2014


NOTE: "FAIR" INDICATES FEW OR NO CLOUDS BELOW 12,000 FEET WITH NO
SIGNIFICANT WEATHER AND/OR OBSTRUCTIONS TO VISIBILITY. N/A MEANS
CURRENT SKY AND/OR WEATHER CONDITIONS ARE NOT AVAILABLE.

MNZ060>063-068>070-100100-
   Twin Cities Metro

CITY           SKY/WX    TMP DP  RH WIND       PRES   REMARKS
TWIN CITIES    MOSUNNY   79  50  36 NW5       29.98S
6HR MIN TEMP:  73; 6HR MAX TEMP:  79;

ST PAUL        SUNNY     77  53  43 NE3       29.98S
CRYSTAL        CLOUDY    78  52  40 NE6       29.97S
BLAINE         MOSUNNY   77  55  47 CALM      29.98F
LAKEVILLE      SUNNY     75  52  43 NW3       29.99S
EDEN PRAIRIE   SUNNY     78  48  34 N5        29.97F
6HR MIN TEMP:  73; 6HR MAX TEMP:  80;

SOUTH ST PAUL  SUNNY     77  51  39 E5        29.98S
LAKE ELMO      FAIR      75  54  46 CALM      30.00S
$$
MNZ001>005-007-008-013>017-022>024-027-028-100100-
   Northwest Minnesota

CITY           SKY/WX    TMP DP  RH WIND       PRES   REMARKS
BEMIDJI        MOSUNNY   71  51  48 N5        30.00S
HALLOCK        SUNNY     72  46  40 CALM      29.98F
ROSEAU         SUNNY     72  54  53 CALM      29.98S
WARROAD        SUNNY     72  54  53 CALM      29.98S
THIEF RVR FALL SUNNY     72  48  43 CALM      29.99S
CROOKSTON      SUNNY     72  50  46 W3        29.99F
FOSSTON        SUNNY     73  48  40 CALM      30.01S
DETROIT LAKES  SUNNY     72  50  46 CALM      30.02S
MOORHEAD       SUNNY     73  46  38 N5        30.00S
PARK RAPIDS    SUNNY     73  48  41 W8        29.99F
$$
MNZ006-009>011-018-025>026-100100-
   North Central Minnesota

CITY           SKY/WX    TMP DP  RH WIND       PRES   REMARKS
BAUDETTE       MOSUNNY   71  50  47 N3        29.99F
FLAG ISLAND    SUNNY     68  54  60 S6        29.97S
INTL FALLS     SUNNY     71  48  43 N3        29.98S
6HR MIN TEMP:  67; 6HR MAX TEMP:  72;

LONGVILLE      SUNNY     72  50  46 CALM      30.00S
GRAND RAPIDS   PTSUNNY   70  52  52 CALM      30.00S
CRANE LAKE     SUNNY     68  45  42 NW3       30.01S
ORR            SUNNY     70  46  43 CALM      29.97S
COOK           SUNNY     70  48  46 N3        30.00S
$$
MNZ012-019>021-037-100100-
   Northeast Minnesota

CITY           SKY/WX    TMP DP  RH WIND       PRES   REMARKS
DULUTH         MOSUNNY   72  48  42 N6        29.99S
6HR MIN TEMP:  68; 6HR MAX TEMP:  73;

ELY            MOSUNNY   68  45  42 W7        30.00S
HIBBING        MOSUNNY   73  47  39 NE5       29.99F
EVELETH        PTSUNNY   72  46  40 N8        30.00F
DULUTH HARBOR  SUNNY     70  57  64 E6        29.99S
TWO HARBORS    SUNNY     66  48  52 S6        29.98S
SILVER BAY     SUNNY     64  54  68 CALM      29.98S
GRAND MARAIS     N/A     50  43  77 VRB3      29.99S
G MARAIS ARPRT PTSUNNY   63  43  48 NW3       30.02R
$$
MNZ029>031-032-039>041-046>048-054>057-064-100100-
   West Central Minnesota

CITY           SKY/WX    TMP DP  RH WIND       PRES   REMARKS
FERGUS FALLS   SUNNY     73  45  35 N5        29.99F
WHEATON        SUNNY     72  54  53 CALM      30.01S
MORRIS         SUNNY     75  55  50 N5        29.99S
ALEXANDRIA     SUNNY     74  48  39 NW6       30.02S
ELBOW LAKE     FAIR      73  52  46 N6        30.00S
WADENA         SUNNY     72  54  53 CALM      30.00S
GLENWOOD       SUNNY     73  50  43 NW5       30.02S
APPLETON       MOSUNNY   79  52  38 W5        29.99S
BENSON         SUNNY     77  52  41 NW5       29.99F
ORTONVILLE     SUNNY     77  50  38 N5        29.99F
MADISON        SUNNY     79  52  38 N5        29.99F
WILLMAR        FAIR      77  50  38 NW7       30.01S
$$
MNZ033>034-036-042>043-049>051-058-059-100100-
   Central Minnesota

CITY           SKY/WX    TMP DP  RH WIND       PRES   REMARKS
ST CLOUD       MOSUNNY   77  51  40 CALM      29.98S
6HR MIN TEMP:  75; 6HR MAX TEMP:  81;

SAUK CENTRE    FAIR      74  50  43 W3        30.00S
PAYNESVILLE    SUNNY     72  50  46 W7        30.00S
AITKIN         SUNNY     75  52  43 CALM      29.98S
PINE RIVER     SUNNY     72  54  53 NW5       30.02S
BRAINERD       SUNNY     79  51  37 CALM      29.99S
STAPLES        SUNNY     73  48  40 W5        30.00S
LONG PRAIRIE   PTSUNNY   73  50  43 SW5       30.01S
LITTLE FALLS   SUNNY     73  45  35 CALM      29.99S
LITCHFIELD     SUNNY     79  48  34 NW6       30.00S
BUFFALO        MOSUNNY   76  50  40 CALM      29.99F
MAPLE LAKE     SUNNY     76  56  49 CALM      30.00S
$$
MNZ037-044-045-052-053-100100-
   East Central Minnesota

CITY           SKY/WX    TMP DP  RH WIND       PRES   REMARKS
PRINCETON      MOSUNNY   77  54  44 CALM      29.99S
MORA           SUNNY     73  50  43 NW3       30.01S
CAMBRIDGE      SUNNY     77  57  50 CALM      29.97S
RUSH CITY      SUNNY     74  48  39 CALM      29.99S
MOOSE LAKE     MOSUNNY   72  48  43 CALM      29.98S
HINCKLEY       FAIR      72  55  56 N5        29.99S
CLOQUET        SUNNY     72  43  35 NW7       30.00S
MCGREGOR       MOSUNNY   72  52  49 CALM      30.00S
$$
MNZ071>073-080-081-089-090-097-098-100100-
   Southwest Minnesota

CITY           SKY/WX    TMP DP  RH WIND       PRES   REMARKS
MONTEVIDEO     SUNNY     81  54  39 N6        30.00F
GRANITE FALLS  SUNNY     77  49  37 NW6       30.01S
CANBY          SUNNY     77  54  44 N5        30.00F
MARSHALL       SUNNY     77  54  44 MISG      29.99F
REDWOOD FALLS  SUNNY     79  51  37 N7        29.98F
OLIVIA         SUNNY     77  50  38 NW7       29.99S
PIPESTONE      SUNNY     79  55  44 N6        30.01S
WINDOM         SUNNY     77  54  44 N5        30.01S
WORTHINGTON    MOSUNNY   77  57  50 NE5       30.02S
JACKSON        PTSUNNY   77  52  41 N3        30.01F
TRACY          SUNNY     77  54  44 N6        30.00F
SLAYTON        SUNNY     76  53  44 CALM      30.01F
$$
MNZ065>067-074>077-082>085-091>093-100100-
   South Central Minnesota

CITY           SKY/WX    TMP DP  RH WIND       PRES   REMARKS
MANKATO        MOSUNNY   79  48  34 NW8       29.99S
NEW ULM        SUNNY     79  52  38 N6        29.99S
ST JAMES       SUNNY     79  48  34 N3        30.00S
FAIRMONT       SUNNY     79  50  36 N6        30.00S
GLENCOE        MOSUNNY   78  43  28 W7        29.98F
FARIBAULT      MOSUNNY   77  52  41 NE3       29.99S
OWATONNA       SUNNY     77  54  44 CALM      29.99F
WASECA         SUNNY     77  45  31 NW7       30.01S
ALBERT LEA     MOSUNNY   77  52  41 NW5       29.99F
$$
MNZ078>079-086>088-094>096-100100-
   Southeast Minnesota

CITY           SKY/WX    TMP DP  RH WIND       PRES   REMARKS
ROCHESTER      SUNNY     74  54  49 N5        30.02S
6HR MIN TEMP:  71; 6HR MAX TEMP:  77;

RED WING       SUNNY     79  50  36 CALM      29.98S
STANTON        SUNNY     76  53  45 CALM      29.98S
DODGE CENTER   MOSUNNY   75  55  50 NE3       30.01S
WINONA         SUNNY     75  52  43 CALM      30.00S
AUSTIN         MOSUNNY   73  57  56 E3        29.99F
PRESTON        SUNNY     73  57  56 CALM      30.02S
$$
ABBREVIATIONS USED IN REMARKS
   TC - TEMPERATURES IN CELSIUS
  WCI - WIND CHILL INDEX
   HX - HEAT INDEX
  VSB - VISIBILITY
$$


USA.gov is the U.S. government's official web portal to all federal, state and local government web resources and services.